#timestamp,LO_Frequency,Hit,StdDev 
1508482815.8,286047001.7,N
1508482835.6,286046999.7,N
1508482855.5,286047003.7,N
1508482875.3,286047003.0,N
1508482895.1,286047004.6,N
1508482915.9,286047007.3,Y
1508482935.7,286047005.2,P
1508482955.5,286047005.3,N
1508482975.4,286047000.5,N
1508482995.2,286046999.7,N
1508483015.0,286047000.6,N
1508483015.9,286047000.6,N
1508483035.8,286046998.1,N
1508483055.6,286047001.0,N
1508483075.4,286046999.3,N
1508483095.2,286047000.3,N
1508483115.1,286047001.5,N
1508483116.0,286047001.5,N
1508483135.8,286046998.9,N
1508483155.6,286046997.0,N
1508483175.5,286047000.8,N
1508483195.3,286046997.3,N
1508483215.1,286046995.4,N
1508483235.9,286046996.1,N
1508483255.7,286046997.5,N
1508483275.5,286046999.0,N
1508483295.4,286046999.3,N
1508483315.2,286046996.7,N
1508483335.0,286046997.6,N
1508483335.9,286046997.6,N
1508483355.8,286046996.9,N
1508483375.6,286047001.0,N
1508483395.4,286046996.6,N
1508483415.3,286046997.4,N
1508483435.1,286046998.8,N
1508483436.0,286046998.8,N
1508483455.8,286047000.3,N
1508483475.7,286046994.9,N
1508483495.5,286046995.8,N
1508483515.3,286046999.2,N
1508483535.1,286046999.5,N
1508483555.9,286046993.7,Y
1508483575.7,286046994.9,P
1508483595.5,286046999.4,N
1508483615.4,286046997.7,N
1508483635.2,286047000.0,N
1508483655.0,286046999.7,N
1508483655.9,286046999.7,N
1508483675.8,286046995.4,N
1508483695.6,286046997.4,N
1508483715.4,286046995.3,N
1508483735.3,286046995.3,N
1508483755.1,286047002.7,N
1508483775.8,286046998.3,N
1508483795.7,286046998.3,N
1508483815.5,286046997.7,N
1508483835.3,286047004.4,N
1508483855.2,286047006.6,N
1508483875.9,286047005.4,N
1508483895.7,286047004.4,N
1508483915.6,286047007.3,N
1508483935.4,286047003.3,N
1508483955.2,286047002.7,N
1508483975.0,286047000.0,N
1508483976.0,286047000.0,N
1508483995.8,286047002.8,N
1508484015.6,286047000.1,N
1508484035.4,286046998.7,N
1508484055.3,286047000.6,N
1508484075.1,286047000.7,N
1508484095.8,286047004.2,N
1508484115.7,286047002.6,N
1508484135.5,286047002.0,N
1508484155.3,286047001.6,N
1508484175.2,286047000.2,N
1508484195.9,286047003.1,N
1508484215.7,286047002.4,N
1508484235.6,286047002.3,N
1508484255.4,286047004.4,N
1508484275.2,286046998.2,N
1508484295.1,286046998.9,N
1508484296.0,286046998.9,N
1508484315.8,286046997.9,N
1508484335.6,286046998.8,N
1508484355.5,286047001.0,N
1508484375.3,286047000.1,N
1508484395.1,286047003.7,N
1508484415.9,286047004.0,N
1508484435.7,286046999.8,N
1508484455.5,286047002.1,N
1508484475.3,286047002.8,N
1508484495.2,286047002.6,N
1508484515.0,286047001.8,N
1508484515.9,286047001.8,N
1508484535.7,286047000.3,N
1508484555.6,286046998.3,N
1508484575.4,286047001.0,N
1508484595.2,286046999.4,N
1508484615.1,286046999.3,N
1508484616.0,286046999.3,N
1508484635.8,286046997.1,N
1508484655.6,286046993.4,Y
1508484675.5,286046998.5,P
1508484695.3,286046998.8,N
1508484715.1,286047000.5,N
1508484735.9,286046998.8,N
1508484755.7,286046999.3,N
1508484775.5,286047001.1,N
1508484795.4,286046998.8,N
1508484815.2,286046999.8,N
1508484835.0,286047002.1,N
1508484835.9,286047002.1,N
1508484855.8,286047002.3,N
1508484875.6,286046998.8,N
1508484895.4,286046998.1,N
1508484915.3,286047003.0,N
1508484935.1,286047005.3,Y
1508484936.0,286047005.3,P
1508484955.8,286047001.9,N
1508484975.7,286046999.7,N
1508484995.5,286046999.3,N
1508485015.3,286046997.8,N
1508485035.2,286046999.3,N
1508485055.9,286047002.0,N
1508485075.7,286047000.0,N
1508485095.6,286046999.5,N
1508485115.4,286046997.7,N
1508485135.2,286046998.1,N
1508485155.1,286047002.2,N
1508485156.0,286047002.2,N
1508485175.8,286047001.2,N
1508485195.6,286046999.6,N
1508485215.5,286046998.5,N
1508485235.3,286046996.6,N
1508485255.1,286046999.9,N
1508485275.9,286047002.7,N
1508485295.7,286046996.5,N
1508485315.5,286047002.3,N
1508485335.4,286047001.8,N
1508485355.2,286046999.9,N
1508485375.0,286046998.1,N
1508485375.9,286046998.1,N
1508485395.8,286047000.4,N
1508485415.6,286047001.0,N
1508485435.4,286046996.9,N
1508485455.3,286046999.2,N
1508485475.1,286046995.0,N
1508485476.0,286046995.0,N
1508485495.8,286046997.2,N
1508485515.7,286046997.1,N
1508485535.5,286046997.3,N
1508485555.3,286046995.5,N
1508485575.2,286046997.8,N
1508485595.9,286046994.5,N
1508485615.7,286046995.5,N
1508485635.6,286046999.5,N
1508485655.4,286046999.9,N
1508485675.2,286047000.3,N
1508485695.1,286046997.6,N
1508485696.0,286046997.6,N
1508485715.8,286046996.8,N
1508485735.6,286046999.8,N
1508485755.5,286047001.2,N
1508485775.3,286046993.6,N
1508485795.1,286046990.1,Y
1508485815.9,286046996.4,P
1508485835.7,286046996.2,P
1508485855.5,286047000.5,N
1508485875.3,286046999.1,N
1508485895.2,286047000.7,N
1508485915.0,286046996.4,N
1508485915.9,286046996.4,N
1508485935.8,286046992.7,Y
1508485955.6,286047001.3,P
1508485975.4,286047003.3,N
1508485995.3,286046997.7,N
1508486015.1,286046995.6,N
1508486016.0,286046995.6,N
1508486035.8,286046998.9,N
1508486055.7,286047002.8,N
1508486075.5,286047000.6,N
1508486095.3,286046999.8,N
1508486115.2,286047001.4,N
1508486135.9,286047005.2,N
1508486155.7,286047006.3,N
1508486175.5,286047006.4,N
1508486195.4,286047005.2,N
1508486215.2,286047003.4,N
1508486235.0,286046994.7,N
1508486235.9,286046994.7,N
1508486255.8,286046982.5,Y
1508486275.6,286046978.3,P
1508486295.4,286046977.5,N
1508486315.3,286046977.5,N
1508486335.1,286046985.5,N
1508486355.8,286046989.1,N
1508486375.7,286046994.6,N
1508486395.5,286046996.2,N
